Regional Weather Roundup
Issued by NWS

Home | Current Version | Previous Version | Text Only | Print | Product List | Glossary Off
Versions: 1 2 3 4 5 6 7 8 9 10 11 12 13 14 15 16 17 18 19 20 21 22 23 24 25 26 27

000
ASUS45 KBOI 191510
RWRID

IDAHO REGIONAL WEATHER ROUNDUP
NATIONAL WEATHER SERVICE BOISE ID
800 AM MST SUN NOV 19 2017

NOTE: "FAIR" INDICATES FEW OR NO CLOUDS BELOW 12000 FEET
WITH NO SIGNIFICANT WEATHER AND/OR OBSTRUCTIONS TO VISIBILITY

IDZ012-014-191600-
SOUTHWEST IDAHO


CITY           SKY/WX    TMP DP  RH WIND       PRES   REMARKS
BOISE          CLEAR     30  21  69 SE7       30.19F WCI  23
CALDWELL       CLEAR     28  23  81 E8        30.23S WCI  20
MOUNTAIN HOME  PTCLDY    30  25  81 SE16      30.20F WCI  19
$$

IDZ016-017-191600-
SOUTHCENTRAL IDAHO


CITY           SKY/WX    TMP DP  RH WIND       PRES   REMARKS
BURLEY         CLEAR     25  20  81 NE7       30.21S WCI  17
JEROME         PTCLDY    26  21  81 NE16      30.22S WCI  14
TWIN FALLS     PTCLDY    20  18  92 E8        30.21S WCI  10
$$

IDZ019>023-191600-
SOUTHEAST IDAHO


CITY           SKY/WX    TMP DP  RH WIND       PRES   REMARKS
IDAHO FALLS    CLOUDY    21  18  88 VRB3      30.25S
POCATELLO      CLOUDY    22  20  92 VRB3      30.25R
REXBURG        CLOUDY    20  17  88 NE3       30.24F
$$

IDZ006-010-011-018-031-032-191600-
CENTRAL IDAHO MOUNTAINS


CITY           SKY/WX    TMP DP  RH WIND       PRES   REMARKS
MCCALL         PTCLDY    17  14  88 CALM      30.14S
HAILEY         PTCLDY    18  12  79 NW12      30.24S WCI   5
STANLEY          N/A      7   3  84 CALM      30.20S
SALMON         CLOUDY    18  14  84 CALM      30.21R
CHALLIS        CLEAR     17  11  77 CALM      30.21R
$$

IDZ002-004-006-007-026-191600-
NORTHERN IDAHO


CITY           SKY/WX    TMP DP  RH WIND       PRES   REMARKS
LEWISTON       CLEAR     34  27  75 NE6       30.07S WCI  29
LOWELL           N/A     30  29  96 CALM      30.18F
COEUR D`ALENE  CLEAR     30  25  81 NE7       30.03R WCI  23
MULLAN PASS    CLEAR     21  16  81 S6        29.95S WCI  13
$$




USA.gov is the U.S. government's official web portal to all federal, state and local government web resources and services.